Regional Weather Roundup
Issued by NWS Wakefield, VA

Home | Current Version | Previous Version | Text Only | Print | Product List | Glossary On
Versions: 1 2 3 4 5 6 7 8 9 10 11 12 13 14 15 16 17 18 19 20 21 22 23 24 25 26 27 28 29 30 31 32 33 34 35 36 37 38 39 40 41 42 43 44 45 46 47 48 49 50
000
ASUS41 KAKQ 271810
RWRAKQ

REGIONAL WEATHER ROUNDUP
NATIONAL WEATHER SERVICE WAKEFIELD VA
100 PM EST THU NOV 27 2014

Note: "fair" indicates few or no clouds below 12,000 feet with no
significant weather and/or obstructions to visibility. * = Denotes
station may not report precipitation (e.g., rain,snow,etc.),
thunder or fog.

VAZ042-051-052>054-056-271900-
NORTHERN VIRGINIA

CITY           SKY/WX    TMP DP  RH WIND       PRES   REMARKS
WASH NATIONAL  PTSUNNY   46  32  58 NW10      30.05S
DULLES         PTSUNNY   43  30  60 NW13      30.04F
FORT BELVOIR   CLOUDY    44  32  64 NW9       30.05S
QUANTICO       CLOUDY    40  36  86 CALM      30.07S
FREDERICKSBRG* LGT RAIN  42  41  95 CALM      30.05S
STAFFORD*      CLOUDY    40  40 100 CALM      30.09S
WARRENTON      CLOUDY    44  38  79 N6        30.04S
CULPEPER*      PTSUNNY   45  36  70 N7        30.05F
MANASSAS*      NOT AVBL
LEESBURG*      MOSUNNY   43  32  65 NW13      30.05S
WINCHESTER     CLOUDY    41  27  56 W7        30.04S
FRONT ROYAL*   CLOUDY    34  34 100 S5        30.04S
LURAY*         FOG       36  36 100 CALM      30.04S VSB 3/4
$$

VAZ048-049-060>072-079>083-271900-
CENTRAL AND SOUTH CENTRAL VIRGINIA

CITY           SKY/WX    TMP DP  RH WIND       PRES   REMARKS
RICHMOND       CLOUDY    48  40  73 W7        30.02F
CHESTERFIELD*  MOCLDY    46  32  57 W5        30.04F
PETERSBURG*    LGT RAIN  46  43  87 NW5       30.03F
HANOVER        LGT RAIN  44  40  85 NW3       30.04F
TAPPAHANNOCK*  RAIN      42  38  84 CALM      30.05R
QUINTON*       CLOUDY    43  41  92 W3        30.03S
CHARLOTTSVILLE CLOUDY    43  36  76 CALM      30.03S
GORDONSVILLE*  CLOUDY    42  37  83 CALM      30.03F
ORANGE*        CLOUDY    45  36  70 NW5       30.06R
LOUISA*        PTSUNNY   45  39  81 NW3       30.03S
BUMPASS*       CLOUDY    41  38  90 N3        30.04S
FARMVILLE*     CLOUDY    48  40  72 W3        30.02S
CREWE*         CLOUDY    44  39  82 W6        30.03S
FORT PICKETT*  CLOUDY    44  40  87 W6        30.03S
CHASE CITY*    CLOUDY    44  42  96 NW3       30.04F
CLARKSVILLE*     N/A     41  39  93 NW5       30.05S
SOUTH HILL*    CLOUDY    43  40  89 NW3       30.09S
LAWRENCEVILLE* CLOUDY    43  42  95 CALM      30.03S
$$

VAZ088>098-271900-
SOUTHEAST VIRGINIA

CITY           SKY/WX    TMP DP  RH WIND       PRES   REMARKS
NORFOLK        CLOUDY    43  39  86 NW6       30.01F
VIRGINIA BEACH CLOUDY    47  41  80 VRB5      30.00F
NORFOLK NAVAL  LGT RAIN  45  39  79 NW8       30.03F
WEST POINT*    CLOUDY    46  42  86 W3        30.04F
SALUDA*        CLOUDY    42  40  93 CALM      30.02F
NEWPORT NEWS   LGT RAIN  46  40  79 W6        30.02F
LANGLEY AFB    LGT RAIN  42  42 100 W3        30.03F FOG
FORT EUSTIS    CLOUDY    43  43 100 W6        30.01F
WILLIAMSBURG*  PTSUNNY   46  43  87 W6        30.03F
HR EXEC AP*    CLOUDY    43  39  87 NW3       30.04S
FRANKLIN*      CLOUDY    41  41 100 NW3       30.03S
WAKEFIELD      LGT RAIN  43  39  86 CALM      30.03F
$$

VAZ020-022-025-037-045-271900-
WEST CENTRAL AND SOUTHWEST VIRGINIA

CITY           SKY/WX    TMP DP  RH WIND       PRES   REMARKS
STAUNTON*      CLOUDY    35  34  94 CALM      30.05S FOG
WAYNESBORO*    CLOUDY    37  32  85 NW5       30.02F
HOT SPRINGS VA CLOUDY    28  23  81 W14G20    29.92F WCI  17
LYNCHBURG      CLOUDY    47  31  53 NW9G17    30.05S
DANVILLE       PTSUNNY   46  37  71 NW7       30.07S
SOUTH BOSTON*  CLOUDY    43  39  86 W5        30.06S
MARTINSVILLE   CLOUDY    44  33  64 NW12      30.10R
ROANOKE        CLOUDY    41  26  55 NW15      30.09S
BLACKSBURG     CLOUDY    37  30  75 NW8       30.07S
DUBLIN*        CLOUDY    38  28  69 NW10      30.08R
MARION*        CLOUDY    32  27  79 W21G30    30.11R WCI  20
HILLSVILLE*    CLOUDY    34  26  72 NW18      30.04S WCI  23
RICHLANDS*     CLOUDY    32  27  81 NW8       30.12S
WISE*          CLOUDY    30  30 100 W8        30.15S
ABINGDON*      CLOUDY    35  30  83 NW7       30.16S
$$

MDZ021>025-VAZ099-100-271900-
SOUTHERN MARYLAND AND THE DELMARVA PENINSULA

CITY           SKY/WX    TMP DP  RH WIND       PRES   REMARKS
PATUXENT RIVER CLOUDY    41  34  76 NW7       30.04S
BAY BRIDGE APT   N/A     41  30  65 CALM      30.04S
LEONARDTOWN    CLOUDY    39  32  75 NW3       30.05S
DOVER          MOSUNNY   43  33  67 NW8       30.00F
GEORGETOWN     CLOUDY    42  31  64 VRB6      30.02F
EASTON         PTSUNNY   43  34  70 NW3       30.07S
CAMBRIDGE      CLOUDY    41  32  70 NW3       30.02F
SALISBURY      CLOUDY    47  34  60 NW12      30.01F
OCEAN CITY     CLOUDY    45  33  63 NW8       30.01F
WALLOPS ISLAND CLOUDY    45  36  70 NW8       30.01F
ACCOMACK*      RAIN      43  37  81 N5        30.02S
$$

NCZ012>017-030>032-271900-
NORTH CENTRAL AND EASTERN NORTH CAROLINA

CITY           SKY/WX    TMP DP  RH WIND       PRES   REMARKS
ROANOKE RAPIDS CLOUDY    43  39  87 N7        30.03S
RALEIGH        CLOUDY    43  38  82 NW7       30.06R
ELIZABETH CITY PTSUNNY   51  41  68 NE5       29.99F
AHOSKIE*       CLOUDY    41  39  92 N7        30.03S
EDENTON*       SUNNY     50  42  71 NE3       29.98F
CURRITUCK*     PTSUNNY   49  39  68 NE5       30.00F
KILL DEVIL HLS PTSUNNY   51  42  72 E3        29.96F
MANTEO         CLOUDY    51  42  70 NE3       29.97F
CAPE HATTERAS  SUNNY     57  45  64 SE6       29.92F
TARBORO*       CLOUDY    48  42  80 N12       30.03R
GOLDSBORO      PTSUNNY   52  46  82 W16G23    29.99S
WASHINGTON     MOSUNNY   52  42  70 N8        29.97F
GREENVILLE     MOSUNNY   52  43  71 NW3       30.00S
NEW BERN       MOSUNNY   57  41  55 W13G21    29.97F
WILMINGTON     SUNNY     55  37  50 W17       30.00F
$$

VAZ048-271900-
ELSEWHERE

CITY           SKY/WX    TMP DP  RH WIND       PRES   REMARKS
HARRISBURG PA  CLOUDY    36  27  69 NW9       30.03S
BALTIMORE      PTSUNNY   44  30  57 N7        30.03S
ANNAPOLIS      CLOUDY    43  31  62 NW6       30.04S
ANDREWS AFB    PTSUNNY   42  33  69 NW8       30.03S
PHILADELPHIA   PTSUNNY   40  29  64 NW13      30.02F
WILDWOOD NJ*   CLOUDY    39  30  70 NW6       29.99S
HENDERSON NC   LGT RAIN  41  38  89 NW7       30.05R
GREENSBORO     PTSUNNY   45  38  76 NW10      30.07S
ROCKY MOUNT    LGT RAIN  44  40  85 N15       30.03R
$$

VAZ100-271900-
MARINE

STATION/POSITION TIME  TEMP    WIND        PRES    WAVE   SWELL
                       AIR SEA DIR/SP/G            HT/PER HT/PER
                 (UTC) (F)     (DEG/KT/KT) (MB)    (FT/S) (FT/S)
CAPE MAY NJ      1800   40 49  310/  9/ 12 1015.8F
LEWES DE         1800   41 47  320/ 12/ 14 1016.1F
15NM E FENWICK I 1800   43 54              1015.7F   4/ 8
OCEAN-CITY-INLET 1800   44 49  300/  8/ 12 1015.9S
WACHAPREAGUE VA  1800   42 47  350/  5/  7 1016.3F
THOMAS POINT MD  1800   40 47  110/  3/  4 1018.3F
GOOSES REEF MD   1800   39     340/  6/ 10 1017.9S
COVE POINT MD    1800   39     350/  7/  9 1017.1S
SOLOMONS ISLAND  1800      49                N/A
BISHOPS HEAD MD  1800   42 44  340/  6/  8 1016.4S
PINEY POINT MD   1800           10/  6/  7   N/A
POTOMAC MD       1800   43      30/  8/ 10 1016.1S
CAMBRIDGE MD     1800   40 45  330/  3/  4 1016.9S
LEWISETTA VA     1800   42 47  360/  7/ 10 1016.9R
RAPPAHANNOCK LGT 1800          300/  7/  7 1016.8F
STINGRAY PT      1800   43     330/  8/ 10 1017.0F
YORK RVR RNG VA  1800   43     300/  8/ 10 1016.0S
YORKTOWN VA      1800   43 51  260/  5/  6 1016.3F
JAMESTOWN VA     1800   42     300/  6/  8   N/A
DOMINION TERM VA 1800   42     310/  8/ 11 1016.5F
KIPTOPEKE VA     1800      54  290/ 10/ 12   N/A
CHES BAY BRIDGE  1800   43 52  280/  6/  8 1015.9S
CAPE HENRY VA    1800   43     300/  8/  9 1015.0F
CHESAPEAKE LGHT  1700   45     290/  4/  6 1017.2F
WILLOUBY STN VA  1800   42     300/  7/  8 1015.1F
S CRANEY ISL VA  1800          280/  5/  7 1016.3S
CAPE HENRY BUOY  1800      56                N/A     3/ 8   2/11
1ST LANDING BUOY 1800   44     290/  6/ 10 1015.9F
CAPE CHARLES BUO 1800      55                N/A     3/ 9
64NM E OF VA BCH 1800   50 62  310/  4/  6 1015.1F   6/ 9   5/ 9
DUCK PIER NC     1800   50 54   90/  4/  5 1014.4F
44100 DUCK FRF   1800      58                N/A     4/ 9   2/11
44056 DUCK FRF   1800      56                N/A     4/10   2/11
OREGON INLET NC  1800   51 55   60/  5/  7 1014.2F
HATTERAS NC      1800   55 58   90/  7/  8 1013.7F
DIAMOND SHLS NC  1800   60     220/ 10/ 16 1013.3F   5/ 9   3/ 9
CAPE LOOKOUT NC  1700   54     260/ 20/ 24 1014.3F
$$


USA.gov is the U.S. government's official web portal to all federal, state and local government web resources and services.